Wind_Speed
16 15 15 15 15 15 15 14 14 13 13 12 13 14 14 13 13 13 12 13 14 16 16 16 17 17 17 17 17 17 16 15 15 16 16 16 15 14 13 13 13 12 12 12
17 16 16 16 14 15 14 14 13 13 12 11 13 14 14 14 13 13 12 12 13 14 15 16 16 17 17 16 17 17 17 16 16 16 16 16 16 15 14 14 13 13 12 13
17 16 16 16 14 14 14 14 14 13 12 12 13 14 15 15 14 13 13 13 14 14 16 17 17 17 16 16 17 17 17 17 16 16 17 17 16 16 15 15 14 14 14 14
18 17 17 14 14 14 14 14 14 12 12 12 13 14 14 14 14 13 13 13 14 15 15 16 16 16 16 16 16 16 17 17 16 16 17 17 17 16 16 16 16 16 15 15
19 18 17 15 14 14 15 14 14 13 13 13 13 14 14 15 15 14 14 14 14 16 16 16 16 16 16 16 16 15 15 16 16 17 17 17 17 17 17 17 17 16 16 16
19 18 18 16 15 15 15 14 14 14 14 14 14 14 14 14 14 14 14 14 14 15 15 15 15 16 17 17 16 16 15 15 16 17 17 17 17 18 17 17 17 17 17 17
19 18 17 15 15 15 15 13 13 14 14 14 13 13 14 14 15 14 14 15 15 15 15 15 16 16 16 16 16 16 16 16 16 16 16 16 16 17 17 17 16 16 17 17
19 19 17 16 16 16 14 13 14 14 14 14 14 14 14 14 14 14 14 15 15 15 15 15 15 16 16 16 16 17 17 16 16 16 16 16 16 17 17 17 16 16 17 17
20 19 18 17 16 16 15 15 14 14 14 14 14 14 14 14 14 14 14 14 15 15 15 15 15 16 17 17 17 17 17 17 17 17 17 17 17 17 17 18 18 18 17 18
21 19 18 17 16 16 16 16 15 15 15 15 15 15 15 14 14 15 15 15 15 15 15 15 15 16 16 16 17 18 18 18 18 18 18 18 18 18 18 19 19 19 19 19
22 21 19 18 17 17 17 16 16 15 14 15 15 15 15 15 16 16 17 15 15 15 16 16 16 16 17 17 17 17 18 18 18 18 18 18 19 19 20 20 19 19 20 20
23 22 21 19 18 18 18 17 17 16 15 15 16 16 16 16 16 16 17 17 16 16 17 17 17 17 17 17 18 18 18 19 19 19 19 19 20 20 20 20 20 20 21 21
23 22 21 21 21 20 19 18 18 17 16 16 16 16 16 16 17 17 17 17 17 18 18 18 18 18 18 18 18 18 18 19 20 20 20 20 21 21 21 21 21 22 23 23
23 22 22 22 22 21 20 20 19 18 17 16 16 16 16 16 16 16 17 17 18 19 19 20 19 19 19 20 19 19 19 19 20 20 21 21 21 21 22 22 23 23 24 24
23 23 23 22 22 22 21 21 20 20 19 18 18 17 18 18 18 17 17 18 18 18 19 20 20 20 20 20 20 20 20 20 20 21 21 21 21 22 22 22 23 24 25 26
25 25 24 24 23 23 23 22 22 22 21 20 19 19 19 19 18 18 18 18 19 18 19 20 20 20 20 20 21 21 20 20 21 21 21 21 21 22 22 23 24 25 26 26
26 25 24 25 25 25 24 23 23 23 22 21 21 20 20 20 20 19 19 18 18 19 19 20 20 20 21 21 21 21 21 21 21 21 21 22 22 22 23 23 24 25 26 27
27 27 26 25 26 26 24 23 23 23 23 22 21 21 21 21 21 20 20 20 20 20 20 19 19 20 20 20 21 21 21 21 21 22 22 23 23 24 24 24 26 26 27 28
28 28 27 27 26 26 25 24 25 25 24 23 22 21 21 21 22 21 21 22 22 21 21 21 20 20 20 21 22 22 22 22 22 23 23 24 24 25 25 26 27 27 28 28
29 28 28 27 27 26 26 26 27 26 26 25 24 24 24 23 23 23 23 23 23 22 22 22 22 21 21 22 22 22 23 23 24 24 25 25 25 26 26 27 28 28 27 28
29 29 28 27 27 27 27 27 28 27 27 27 26 26 26 26 25 25 24 24 24 24 24 24 23 23 23 23 23 24 24 24 25 25 26 26 27 27 27 28 28 28 29 29
30 30 29 29 28 28 28 28 28 28 28 28 27 27 27 27 27 26 25 24 25 25 25 25 25 25 25 25 24 24 25 26 26 26 26 26 27 27 27 28 29 30 30 31
31 31 30 30 29 29 29 29 28 28 27 27 27 27 27 27 27 27 26 25 25 25 25 26 26 26 26 26 26 26 26 26 26 26 26 26 27 28 29 29 30 30 31 31
31 31 31 31 30 30 29 29 28 28 27 27 27 27 27 27 27 27 27 27 26 26 26 26 26 26 26 27 27 27 26 25 25 26 26 27 28 29 30 30 31 32 32 32
31 31 31 30 30 30 29 29 29 28 28 27 27 27 28 28 28 27 28 27 27 27 27 27 27 26 27 27 27 26 27 27 27 27 28 29 29 30 31 31 32 32 33 33
31 31 31 31 31 31 31 30 30 29 28 28 27 28 28 28 28 27 27 27 27 28 28 28 27 27 27 27 27 27 28 28 28 29 29 30 31 31 32 32 32 33 34 35
31 31 31 31 31 31 32 31 31 30 29 29 28 27 27 27 27 27 27 28 28 28 28 28 28 28 28 28 28 28 29 29 30 31 31 31 32 32 33 33 33 33 34 34
Wind_Direction
240 243 245 248 251 251 254 257 258 254 248 245 246 245 246 246 246 246 248 245 241 238 233 231 230 231 230 230 228 227 229 230 230 233 234 235 238 242 246 249 253 256 259 268
238 241 244 247 248 250 254 256 254 249 242 242 244 243 243 243 243 243 244 242 239 236 234 234 234 233 230 230 229 229 229 231 234 235 235 235 238 242 247 251 254 257 261 267
240 241 244 244 246 249 250 249 249 247 242 241 243 242 242 242 243 242 242 242 238 235 235 233 235 235 233 231 231 231 231 233 235 239 238 237 240 244 248 252 257 259 263 268
241 241 243 244 244 249 249 248 249 247 242 241 243 243 243 243 242 242 245 243 238 235 235 233 233 234 233 230 229 231 232 234 238 242 242 241 243 246 250 254 258 260 264 269
239 240 242 243 242 245 248 246 247 245 243 241 242 243 243 245 244 245 246 243 241 240 239 237 235 234 231 228 228 231 234 237 241 242 243 244 248 250 253 256 256 259 264 268
238 241 244 242 243 246 248 244 243 243 243 245 245 245 245 245 244 244 242 242 242 241 240 237 235 233 234 233 233 236 239 240 243 245 246 250 252 253 255 257 259 260 263 268
239 242 243 240 243 245 246 245 245 245 244 247 247 246 244 243 242 239 242 243 244 244 243 241 238 235 235 233 235 239 242 244 247 249 251 253 256 257 258 260 262 265 266 270
241 243 241 241 243 243 246 246 247 247 246 247 247 242 239 241 240 239 242 241 242 242 242 241 240 237 236 237 239 243 246 246 248 250 252 256 259 259 259 260 262 268 269 271
243 244 243 242 244 243 244 246 248 249 248 248 246 243 239 239 242 242 244 242 242 242 243 244 242 241 240 240 243 247 249 249 250 250 253 257 260 261 262 260 261 267 270 272
240 242 243 241 241 243 244 244 247 249 250 249 247 244 241 242 245 243 246 245 246 248 248 248 246 244 245 245 247 248 250 251 251 252 255 258 260 261 263 265 265 268 272 275
236 239 240 240 241 242 244 244 245 247 248 249 247 245 244 245 247 247 245 245 247 250 249 247 246 247 250 249 249 251 251 251 253 255 257 258 260 263 264 265 266 267 269 274
236 236 239 240 241 242 245 246 246 246 247 248 247 246 245 246 247 246 244 246 248 249 249 249 249 249 249 252 253 254 253 252 253 255 257 259 260 263 265 267 266 266 268 272
238 238 239 239 240 242 243 245 245 246 249 248 247 246 246 246 245 245 247 248 247 247 249 250 249 248 249 253 255 256 256 254 252 254 257 260 262 265 265 266 267 268 270 273
238 238 239 239 239 240 242 243 244 244 246 247 246 246 247 247 247 248 248 249 249 246 248 249 248 248 250 253 255 256 257 255 254 255 258 262 264 265 265 266 268 270 272 274
238 239 239 237 237 239 240 242 242 242 244 246 247 249 249 249 249 250 250 250 250 249 249 249 249 250 252 255 257 257 258 258 259 261 262 263 264 266 268 269 270 273 275 276
241 241 241 239 238 237 238 240 240 241 243 245 247 249 250 250 251 252 251 249 250 250 250 250 251 252 255 257 258 258 258 260 263 264 263 263 265 267 270 272 273 275 276 276
240 241 242 240 238 238 240 241 241 242 243 244 246 249 250 250 251 254 253 253 253 252 252 252 253 255 257 259 260 259 261 262 263 263 264 266 268 271 273 275 277 277 278 278
241 241 242 242 239 238 239 239 240 241 243 244 247 249 249 250 251 253 253 254 255 256 255 255 256 258 260 261 261 260 262 263 264 266 267 268 270 272 274 276 278 280 281 282
242 242 241 241 240 238 237 239 241 243 244 244 246 249 250 251 252 254 255 255 255 257 258 258 259 259 260 262 262 262 263 264 266 268 270 271 272 273 274 276 277 279 280 282
239 240 240 240 240 239 238 239 240 243 245 245 247 250 251 251 253 255 256 256 256 257 258 258 258 260 261 262 262 263 264 266 267 268 270 272 273 274 275 276 277 278 279 281
238 240 240 239 239 239 240 240 241 243 246 247 249 250 251 252 253 255 256 256 257 257 257 257 258 260 261 262 264 266 267 268 270 271 273 273 274 275 277 278 278 279 281 283
238 239 238 237 237 238 239 241 243 245 247 249 251 251 252 253 253 254 256 255 256 257 257 258 260 262 262 263 266 269 270 270 270 272 273 273 274 276 278 279 280 281 282 284
238 238 238 237 238 240 241 243 244 245 247 249 250 250 251 252 252 252 253 255 256 258 259 260 261 263 264 265 266 268 270 270 270 271 272 274 275 277 279 280 282 283 284 285
236 236 237 237 238 240 242 243 243 245 247 248 248 249 250 252 252 252 253 254 255 257 259 261 262 263 263 265 267 268 269 269 270 272 273 276 278 279 280 282 283 284 285 286
234 235 236 237 238 239 241 242 243 245 247 248 248 250 251 252 252 252 252 254 256 257 258 260 261 263 265 266 266 267 268 270 272 274 276 277 279 280 281 283 284 284 285 287
235 236 237 238 239 239 240 241 243 245 246 247 248 250 251 251 251 251 252 253 255 258 259 261 262 263 264 265 265 267 268 270 271 273 275 277 278 279 281 283 285 286 287 289
237 237 238 238 239 239 240 241 242 243 245 246 247 250 250 251 252 251 251 253 256 257 259 261 263 264 264 264 265 267 269 271 273 274 276 278 279 280 282 284 285 286 288 290
Height
5794 5796 5797 5799 5800 5801 5802 5803 5804 5806 5807 5808 5809 5810 5810 5811 5812 5813 5813 5814 5815 5817 5818 5820 5822 5824 5826 5828 5830 5832 5834 5836 5838 5840 5842 5844 5845 5847 5848 5848 5849 5849 5850 5850
5790 5792 5793 5794 5796 5797 5798 5799 5800 5802 5803 5804 5805 5806 5807 5808 5809 5810 5811 5811 5812 5814 5815 5817 5819 5821 5822 5824 5826 5828 5831 5833 5835 5837 5839 5840 5841 5843 5844 5845 5846 5846 5846 5847
5786 5788 5789 5791 5793 5794 5795 5796 5797 5799 5801 5801 5801 5802 5803 5804 5805 5807 5808 5808 5809 5811 5812 5814 5816 5818 5819 5821 5823 5825 5827 5829 5831 5833 5835 5836 5838 5839 5840 5841 5842 5842 5843 5843
5782 5784 5785 5790 5790 5790 5791 5793 5794 5795 5796 5797 5798 5799 5800 5801 5802 5803 5804 5805 5807 5808 5809 5811 5813 5814 5816 5817 5819 5822 5824 5826 5827 5829 5831 5832 5834 5835 5836 5837 5838 5838 5839 5839
5778 5779 5781 5785 5786 5787 5788 5790 5791 5792 5793 5794 5795 5796 5797 5798 5799 5800 5801 5802 5804 5805 5806 5808 5809 5811 5812 5814 5816 5818 5820 5822 5824 5825 5827 5828 5829 5831 5832 5832 5833 5834 5835 5835
5773 5775 5777 5782 5783 5783 5785 5786 5788 5788 5789 5790 5791 5793 5794 5795 5795 5796 5798 5799 5800 5801 5802 5804 5805 5807 5809 5811 5813 5814 5816 5818 5819 5821 5822 5824 5825 5826 5827 5828 5829 5829 5830 5830
5769 5771 5773 5777 5778 5780 5782 5785 5784 5785 5786 5787 5788 5789 5791 5791 5792 5793 5794 5795 5797 5798 5799 5800 5802 5803 5805 5807 5809 5811 5812 5814 5815 5816 5818 5819 5820 5821 5822 5823 5824 5825 5826 5826
5765 5767 5772 5772 5774 5776 5778 5779 5780 5781 5782 5783 5784 5785 5786 5787 5788 5789 5791 5792 5793 5794 5795 5796 5798 5799 5801 5803 5805 5806 5808 5809 5811 5812 5813 5815 5816 5817 5818 5819 5820 5821 5821 5821
5762 5765 5767 5768 5770 5772 5773 5775 5776 5777 5778 5779 5780 5781 5782 5784 5785 5786 5787 5788 5789 5790 5791 5792 5794 5795 5797 5799 5800 5802 5803 5805 5806 5808 5809 5810 5811 5812 5813 5814 5815 5816 5816 5816
5756 5759 5761 5763 5765 5767 5768 5770 5771 5773 5774 5775 5776 5777 5778 5780 5781 5782 5783 5784 5785 5786 5787 5789 5790 5791 5793 5794 5796 5797 5798 5800 5801 5803 5804 5805 5806 5807 5808 5809 5810 5811 5811 5811
5750 5754 5756 5758 5760 5762 5764 5766 5767 5768 5770 5771 5772 5773 5775 5776 5777 5778 5779 5780 5781 5782 5783 5785 5786 5787 5789 5790 5791 5792 5793 5795 5796 5797 5799 5800 5801 5802 5803 5804 5804 5805 5806 5806
5746 5748 5751 5754 5756 5757 5759 5761 5763 5764 5765 5766 5768 5769 5770 5771 5773 5774 5775 5776 5777 5778 5779 5780 5781 5783 5784 5785 5786 5787 5788 5789 5791 5792 5793 5794 5796 5796 5797 5798 5799 5799 5800 5800
5740 5742 5744 5747 5750 5752 5754 5756 5758 5759 5761 5762 5763 5765 5766 5767 5768 5769 5770 5771 5772 5773 5774 5775 5776 5778 5779 5780 5781 5782 5783 5784 5785 5787 5788 5789 5790 5791 5791 5792 5792 5793 5793 5793
5733 5736 5738 5741 5744 5746 5748 5750 5752 5754 5756 5757 5759 5760 5761 5762 5763 5765 5766 5766 5767 5768 5769 5771 5772 5773 5774 5775 5775 5776 5778 5779 5780 5781 5782 5783 5784 5785 5785 5786 5786 5786 5787 5787
5727 5729 5732 5734 5737 5740 5742 5744 5747 5749 5750 5752 5753 5755 5756 5757 5758 5759 5760 5761 5762 5763 5764 5765 5766 5767 5768 5769 5770 5770 5772 5773 5774 5775 5776 5777 5778 5778 5779 5779 5779 5779 5779 5779
5719 5722 5725 5727 5730 5733 5736 5738 5741 5743 5745 5746 5748 5749 5750 5751 5753 5754 5755 5756 5757 5758 5759 5760 5760 5762 5762 5763 5764 5765 5766 5767 5768 5769 5770 5771 5771 5772 5772 5772 5772 5772 5772 5772
5712 5715 5717 5720 5723 5726 5729 5732 5734 5736 5738 5740 5742 5743 5744 5746 5747 5748 5749 5750 5751 5752 5753 5754 5755 5756 5757 5758 5758 5759 5760 5761 5762 5763 5764 5764 5765 5765 5765 5765 5765 5765 5765 5764
5705 5708 5710 5713 5716 5719 5722 5724 5727 5729 5731 5733 5735 5737 5738 5740 5741 5742 5744 5745 5746 5747 5748 5749 5750 5750 5751 5752 5753 5754 5754 5755 5756 5757 5757 5758 5758 5758 5758 5758 5757 5757 5757 5756
5697 5700 5703 5706 5709 5712 5715 5718 5720 5722 5724 5727 5728 5730 5732 5733 5735 5736 5737 5739 5740 5741 5742 5742 5744 5744 5745 5746 5746 5747 5748 5749 5750 5750 5750 5751 5751 5751 5751 5750 5750 5749 5748 5747
5688 5692 5695 5698 5702 5705 5708 5711 5713 5716 5718 5720 5722 5723 5725 5727 5728 5730 5731 5732 5733 5734 5735 5736 5737 5738 5739 5740 5740 5741 5741 5742 5742 5743 5743 5743 5743 5743 5743 5742 5742 5741 5740 5739
5681 5684 5687 5691 5694 5697 5700 5703 5706 5708 5710 5712 5714 5716 5718 5720 5721 5723 5724 5726 5727 5728 5729 5730 5731 5731 5732 5733 5733 5734 5734 5735 5735 5735 5735 5735 5735 5735 5734 5734 5733 5732 5731 5730
5673 5676 5680 5683 5687 5690 5693 5695 5698 5700 5703 5705 5707 5708 5710 5712 5714 5715 5717 5718 5719 5720 5722 5723 5724 5724 5725 5725 5726 5726 5727 5727 5727 5727 5727 5727 5727 5726 5726 5725 5724 5723 5722 5721
5665 5668 5672 5675 5679 5682 5685 5688 5690 5693 5695 5697 5699 5700 5702 5704 5706 5708 5709 5711 5712 5713 5714 5715 5716 5717 5717 5718 5718 5718 5719 5719 5719 5719 5719 5719 5719 5718 5717 5716 5715 5714 5713 5711
5656 5660 5664 5667 5670 5674 5677 5680 5682 5685 5687 5689 5691 5692 5694 5696 5698 5700 5702 5703 5704 5706 5707 5708 5708 5709 5710 5710 5711 5711 5711 5711 5711 5711 5711 5711 5710 5709 5708 5707 5706 5705 5703 5701
5648 5652 5656 5659 5663 5666 5669 5671 5674 5677 5679 5681 5683 5684 5686 5688 5690 5692 5693 5695 5696 5698 5699 5700 5700 5701 5702 5702 5702 5703 5703 5703 5703 5703 5703 5702 5701 5700 5699 5698 5697 5695 5693 5691
5640 5644 5647 5651 5654 5657 5660 5663 5666 5669 5671 5673 5675 5677 5678 5680 5682 5683 5685 5687 5688 5689 5691 5692 5692 5693 5693 5694 5694 5694 5694 5695 5695 5694 5694 5693 5692 5691 5690 5688 5687 5685 5683 5681
5632 5635 5639 5642 5645 5649 5652 5655 5658 5660 5663 5665 5667 5668 5670 5672 5673 5675 5677 5678 5680 5681 5682 5683 5684 5684 5685 5685 5685 5686 5686 5686 5686 5685 5685 5684 5683 5681 5680 5678 5677 5675 5673 5670